TimeGST,TemperatureF,Dew PointF,Humidity,Sea Level PressureIn,VisibilityMPH,Wind Direction,Wind SpeedMPH,Gust SpeedMPH,PrecipitationIn,Events,Conditions,WindDirDegrees,DateUTC
12:00 AM,91.4,71.6,52,29.50,-9999.0,ESE,16.1,-,N/A,,Clear,110,2013-08-04 20:00:00
1:00 AM,91,73,47,29.52,6,East,12.7,,,,Partly Cloudy,80,2013-08-04 21:00:00
1:00 AM,91.4,73.4,55,29.50,-9999.0,East,12.7,-,N/A,,Clear,80,2013-08-04 21:00:00
2:00 AM,91.4,73.4,55,29.47,-9999.0,East,9.2,-,N/A,,Clear,100,2013-08-04 22:00:00
2:31 AM,91.4,71.6,52,29.47,-9999.0,East,17.3,31.1,N/A,,Clear,100,2013-08-04 22:31:00
3:00 AM,91.4,69.8,49,29.47,-9999.0,East,16.1,-,N/A,,Clear,100,2013-08-04 23:00:00
4:00 AM,90,71,45,29.49,6,East,15.0,,,,Partly Cloudy,100,2013-08-05 00:00:00
4:00 AM,89.6,71.6,55,29.47,-9999.0,East,15.0,-,N/A,,Clear,100,2013-08-05 00:00:00
4:24 AM,89.6,69.8,52,29.47,-9999.0,East,18.4,35.7,N/A,,Clear,100,2013-08-05 00:24:00
5:00 AM,89.6,71.6,55,29.47,-9999.0,East,20.7,-,N/A,,Clear,100,2013-08-05 01:00:00
6:00 AM,87.8,73.4,62,29.47,-9999.0,East,16.1,-,N/A,,Clear,100,2013-08-05 02:00:00
7:00 AM,89,73,51,29.51,6,ESE,13.8,,,,Partly Cloudy,110,2013-08-05 03:00:00
7:00 AM,89.6,73.4,59,29.50,-9999.0,ESE,13.8,-,N/A,,Clear,110,2013-08-05 03:00:00
8:00 AM,91.4,73.4,55,29.53,-9999.0,East,13.8,-,N/A,,Clear,90,2013-08-05 04:00:00
9:00 AM,91.4,71.6,52,29.53,-9999.0,East,15.0,-,N/A,,Clear,100,2013-08-05 05:00:00
10:00 AM,93.2,71.6,49,29.53,-9999.0,East,12.7,-,N/A,,Clear,80,2013-08-05 06:00:00
11:00 AM,95.0,71.6,47,29.53,-9999.0,East,12.7,-,N/A,,Clear,100,2013-08-05 07:00:00
12:00 PM,96.8,69.8,41,29.50,-9999.0,East,10.4,-,N/A,,Clear,90,2013-08-05 08:00:00
1:00 PM,100,70,29,29.51,6,SE,8.1,,,,Scattered Clouds,130,2013-08-05 09:00:00
1:00 PM,100.4,69.8,37,29.50,-9999.0,SE,8.1,-,N/A,,Clear,130,2013-08-05 09:00:00
2:00 PM,100.4,69.8,37,29.47,6.2,Variable,3.5,-,N/A,,Partly Cloudy,0,2013-08-05 10:00:00
3:00 PM,100.4,73.4,42,29.44,6.2,ESE,8.1,-,N/A,,Partly Cloudy,110,2013-08-05 11:00:00
3:44 PM,96.8,73.4,47,29.44,2.8,SE,20.7,-,N/A,,Widespread Dust,130,2013-08-05 11:44:00
4:00 PM,94,73,42,29.46,1,SE,21.9,,,,Blowing Sand,130,2013-08-05 12:00:00
4:00 PM,93.2,73.4,52,29.44,1.2,SE,21.9,-,N/A,,Widespread Dust,130,2013-08-05 12:00:00
5:00 PM,93.2,73.4,52,29.42,6.2,East,15.0,-,N/A,,Partly Cloudy,90,2013-08-05 13:00:00
5:14 PM,95.0,71.6,47,29.42,-9999.0,NNE,6.9,-,N/A,,Clear,30,2013-08-05 13:14:00
6:00 PM,95.0,71.6,47,29.44,-9999.0,NNE,9.2,-,N/A,,Clear,20,2013-08-05 14:00:00
7:00 PM,96,72,37,29.46,6,ENE,9.2,,,,Widespread Dust,60,2013-08-05 15:00:00
7:00 PM,96.8,71.6,44,29.44,5.6,ENE,9.2,-,N/A,,Unknown,60,2013-08-05 15:00:00
8:00 PM,95.0,75.2,53,29.47,-9999.0,East,12.7,-,N/A,,Clear,80,2013-08-05 16:00:00
9:00 PM,93.2,73.4,52,29.47,-9999.0,East,15.0,-,N/A,,Clear,90,2013-08-05 17:00:00
10:00 PM,91.4,73.4,55,29.50,-9999.0,East,13.8,-,N/A,,Clear,90,2013-08-05 18:00:00
11:00 PM,91.4,73.4,55,29.50,-9999.0,East,10.4,-,N/A,,Clear,80,2013-08-05 19:00:00